www.pogodaiklimat.ru

Погода и климат >> Архив погоды >> Австралия >> Западная Австралия >> Микатарра


ПОГОДА в Микатарре

  • Прогноз погоды в Микатарре
  • Монитор погоды в Микатарре

АРХИВ ПОГОДЫ в Микатарре

Время (UTC), дата Ветер
(напр.,м/с)
 
Видим.   Явления Облачность Т
(С)
Тd
(С)
f
(%)
Тe
(С)
Тes
(С)
Комфортность P
(гПа)
Po
(гПа)
Тmin
(С)
Tmax
(С)
R
(мм)
R24
(мм)
S
(см)
10 17.01 ЮЗ 7 н/о н/о +39.1 -1.1 8 +35 +35 очень
жарко
1003.9 947.8
12 17.01 ЮЗ 6 н/о н/о +35.7 -3.6 8 +32 +32 жарко 1005.7 949.5
13 17.01 ЮЗ 5 н/о н/о +34.2 -4.7 8 +30 +30 жарко 1006.5 950.2 +41.3
15 17.01 Ю 5 н/о н/о +30.8 -4.3 10 +27 +27 жарко 1006.8 950.5
16 17.01 Ю 4 н/о н/о +29.8 -2.6 12 +27 +27 жарко 1006.4 950.1
18 17.01 Ю 7 н/о н/о +28.1 +0.8 17 +26 +26 жарко 1006.7 950.4
19 17.01 Ю 7 н/о н/о +27.0 +2.8 21 +25 +25 комфорт 1006.8 950.5
21 17.01 Ю 5 н/о н/о +25.1 +4.3 26 +24 +24 комфорт 1007.7 951.4
22 17.01 Ю 4 н/о н/о +25.1 +4.3 26 +24 +24 комфорт 1008.4 952.0
00 18.01 ЮВ 8 н/о н/о +28.5 +6.0 24 +27 +27 жарко 1009.4 953.0
01 18.01 ЮВ 6 н/о н/о +31.4 +7.1 22 +30 +30 жарко 1009.5 953.1 +24.4
03 18.01 В 6 н/о н/о +35.3 +2.7 13 +32 +32 жарко 1008.9 952.5
04 18.01 В 5 н/о н/о +36.4 +4.6 14 +34 +34 очень
жарко
1008.2 951.8
06 18.01 ЮВ 7 н/о н/о +38.4 0.0 9 +35 +35 очень
жарко
1007.0 950.7
07 18.01 В 5 н/о н/о +38.3 -0.1 9 +35 +35 очень
жарко
1006.5 950.2
09 18.01 ЮВ 5 н/о н/о +38.8 +0.3 9 +35 +35 очень
жарко
1006.0 949.8
10 18.01 ЮВ 7 н/о н/о +37.5 +0.7 10 +34 +34 очень
жарко
1006.5 950.2
12 18.01 ЮВ 7 н/о н/о +34.8 +4.4 15 +32 +32 жарко 1007.6 951.3
13 18.01 ЮВ 6 н/о н/о +33.8 +7.0 19 +32 +32 жарко 1008.4 952.0 +40.1
15 18.01 ЮВ 7 н/о н/о +32.1 +8.4 23 +31 +31 жарко 1009.4 953.0
16 18.01 ЮВ 7 н/о н/о +31.3 +8.9 25 +30 +30 жарко 1009.4 953.0
18 18.01 В 6 н/о н/о +29.5 +9.1 28 +29 +29 жарко 1009.2 952.8
19 18.01 В 7 н/о н/о +28.6 +7.8 27 +28 +28 жарко 1009.3 952.9
21 18.01 В 5 н/о н/о +27.1 +7.5 29 +27 +27 жарко 1010.4 953.9
22 18.01 В 5 н/о н/о +26.9 +8.4 31 +27 +27 жарко 1010.9 954.4
00 19.01 В 8 н/о н/о +30.1 +10.1 29 +30 +30 жарко 1011.7 955.1
01 19.01 В 7 н/о н/о +32.2 +10.8 27 +32 +32 жарко 1011.4 954.9 +26.8
03 19.01 В 7 н/о н/о +35.7 +9.3 20 +34 +34 очень
жарко
1010.8 954.3
04 19.01 СВ 5 н/о н/о +36.6 +9.2 19 +35 +35 очень
жарко
1010.1 953.6
06 19.01 В 5 н/о н/о +38.8 +6.5 14 +36 +36 очень
жарко
1008.3 951.9
07 19.01 В 5 н/о н/о +39.2 +5.7 13 +36 +36 очень
жарко
1007.8 951.5
09 19.01 С 3 н/о н/о +38.6 +4.1 12 +36 +36 очень
жарко
1007.0 950.7
10 19.01 ЮВ 5 н/о н/о +38.6 +4.1 12 +36 +36 очень
жарко
1007.2 950.9
12 19.01 В 5 н/о н/о +36.5 +2.5 12 +33 +33 жарко 1008.6 952.2
13 19.01 ЮВ 4 н/о н/о +35.0 +2.5 13 +32 +32 жарко 1009.0 952.6 +40.3
15 19.01 В 6 н/о н/о +33.0 +4.7 17 +31 +31 жарко 1009.4 953.0
16 19.01 В 6 н/о н/о +32.2 +7.1 21 +31 +31 жарко 1009.3 952.9
18 19.01 В 6 н/о н/о +30.7 +7.8 24 +30 +30 жарко 1009.2 952.8
19 19.01 В 6 н/о н/о +29.9 +8.3 26 +29 +29 жарко 1009.6 953.2
21 19.01 В 6 н/о н/о +28.5 +10.2 32 +29 +29 жарко 1010.3 953.8
22 19.01 В 5 н/о н/о +28.3 +11.4 35 +29 +29 жарко 1011.1 954.6
00 20.01 СВ 7 н/о н/о +31.1 +12.9 33 +32 +32 жарко 1012.2 955.6
01 20.01 СВ 5 н/о н/о +33.8 +13.3 29 +35 +35 очень
жарко
1012.1 955.5 +28.0
03 20.01 СВ 5 н/о н/о +36.9 +9.5 19 +35 +35 очень
жарко
1011.0 954.5
04 20.01 СВ 3 н/о н/о +37.3 +8.2 17 +35 +35 очень
жарко
1010.1 953.6
06 20.01 ЮЗ 4 н/о н/о +39.2 +4.6 12 +36 +36 очень
жарко
1008.3 951.9
07 20.01 Ю 5 н/о н/о +40.6 +4.4 11 +38 +38 очень
жарко
1007.2 950.9
09 20.01 Ю 3 н/о н/о +41.0 +1.9 9 +37 +37 очень
жарко
1006.4 950.1
10 20.01 ЮВ 4 н/о н/о +40.0 -0.5 8 +36 +36 очень
жарко
1006.6 950.3
12 20.01 ЮВ 4 н/о н/о +37.1 +0.4 10 +33 +33 жарко 1007.6 951.3
13 20.01 ЮВ 3 н/о н/о +35.4 +1.7 12 +32 +32 жарко 1008.1 951.7 +41.8
15 20.01 В 4 н/о н/о +33.7 +4.4 16 +31 +31 жарко 1007.8 951.5
16 20.01 В 4 н/о н/о +32.7 +5.3 18 +30 +30 жарко 1007.5 951.2
18 20.01 В 4 н/о н/о +31.3 +7.7 23 +30 +30 жарко 1006.9 950.6
19 20.01 В 5 н/о н/о +30.8 +7.9 24 +30 +30 жарко 1006.9 950.6
21 20.01 В 4 н/о н/о +29.2 +8.3 27 +29 +29 жарко 1007.2 950.9
22 20.01 В 4 н/о н/о +29.0 +8.1 27 +28 +28 жарко 1007.5 951.2
00 21.01 В 7 н/о н/о +34.8 +9.9 22 +34 +34 очень
жарко
1008.2 951.8
01 21.01 В 5 н/о н/о +37.0 +9.6 19 +36 +36 очень
жарко
1008.1 951.7 +28.7
03 21.01 В 4 н/о н/о +39.5 +4.8 12 +37 +37 очень
жарко
1007.2 950.9
04 21.01 В 2 н/о н/о +40.1 +2.7 10 +37 +37 очень
жарко
1006.3 950.0
06 21.01 З 3 н/о н/о +41.1 +0.3 8 +37 +37 очень
жарко
1004.0 947.9
07 21.01 Ю 3 н/о н/о +42.0 +1.0 8 +38 +38 очень
жарко
1003.1 947.0
09 21.01 ЮВ 3 н/о н/о +42.3 -0.6 7 +38 +38 очень
жарко
1002.3 946.3
10 21.01 В 3 н/о н/о +41.8 -1.0 7 +38 +38 очень
жарко
1002.2 946.2
12 21.01 штиль 0 н/о н/о +37.6 -0.6 9 +34 +34 очень
жарко
1003.1 947.0
13 21.01 Ю 3 н/о н/о +35.8 -0.5 10 +32 +32 жарко 1003.0 946.9 +43.7
15 21.01 ЮВ 2 н/о н/о +32.6 +0.6 13 +29 +29 жарко 1002.5 946.5
16 21.01 В 3 н/о н/о +33.8 +1.6 13 +31 +31 жарко 1002.0 946.0
18 21.01 В 3 н/о н/о +31.8 +3.8 17 +29 +29 жарко 1000.8 944.9
19 21.01 В 3 н/о н/о +30.1 +4.0 19 +28 +28 жарко 1000.5 944.6
21 21.01 В 3 н/о н/о +30.3 +5.6 21 +29 +29 жарко 1000.6 944.7
22 21.01 СЗ 4 н/о н/о +30.4 +5.6 21 +29 +29 жарко 1001.5 945.5
00 22.01 СВ 4 н/о н/о +37.1 +6.2 15 +35 +35 очень
жарко
1001.1 945.1
01 22.01 СВ 6 н/о н/о +39.1 +4.5 12 +36 +36 очень
жарко
1000.8 944.9 +30.1
03 22.01 С 9 н/о н/о +42.6 +3.1 9 +39 +39 очень
жарко
1000.1 944.2
04 22.01 СЗ 9 н/о 1/0
[]
+44.4 +0.9 7 +41 +43 опасность
перегрева
999.5 943.6
06 22.01 З 8 н/о н/о +42.5 +3.0 9 +39 +39 очень
жарко
998.6 942.8
07 22.01 СЗ 6 н/о 9/0
[]
+41.8 +4.0 10 +39 +41 очень
жарко
998.5 942.7
09 22.01 С 5 н/о н/о +39.6 +6.1 13 +37 +37 очень
жарко
997.6 941.8
10 22.01 З 5 н/о 10/0
[]
+40.4 +2.9 10 +37 +37 очень
жарко
997.9 942.1
12 22.01 ЮЗ 6 н/о н/о +37.6 +6.6 15 +35 +35 очень
жарко
1000.0 944.1
13 22.01 ЮЗ 7 н/о 9/0
[]
+35.1 +10.2 22 +34 +34 очень
жарко
1001.7 945.7 +44.9
15 22.01 ЮЗ 4 н/о н/о +32.0 +8.9 24 +31 +31 жарко 1002.2 946.2
16 22.01 ЮЗ 4 н/о н/о +30.7 +7.8 24 +30 +30 жарко 1002.0 946.0
18 22.01 ЮЗ 6 н/о н/о +28.4 +9.2 30 +28 +28 жарко 1001.2 945.2
19 22.01 ЮЗ 5 н/о 6/0
[]
+26.5 +8.5 32 +27 +27 жарко 1001.8 945.8
21 22.01 ЮЗ 7 н/о н/о +23.7 +10.0 42 +25 +25 комфорт 1002.1 946.1
22 22.01 ЮЗ 6 н/о 9/0
[]
+22.4 +12.1 52 +25 +25 комфорт 1003.3 947.2
00 23.01 ЮЗ 6 н/о н/о +22.8 +11.2 48 +25 +25 комфорт 1004.3 948.2
01 23.01 Ю 6 н/о 9/0
[]
+24.2 +10.1 41 +25 +28 комфорт 1004.5 948.3 +21.7
03 23.01 ЮЗ 5 н/о н/о +28.5 +9.7 31 +29 +29 жарко 1004.6 948.4
04 23.01 ЮЗ 6 н/о н/о +30.9 +9.7 27 +30 +30 жарко 1003.7 947.6
06 23.01 З 6 н/о н/о +32.2 +6.4 20 +30 +30 жарко 1002.7 946.6
07 23.01 ЮЗ 7 н/о н/о +33.4 +7.4 20 +32 +32 жарко 1002.1 946.1
09 23.01 ЮЗ 7 н/о н/о +32.4 +5.1 18 +30 +30 жарко 1001.4 945.4
10 23.01 ЮЗ 7 н/о н/о +31.3 +4.2 18 +29 +29 жарко 1002.1 946.1
12 23.01 ЮЗ 7 н/о н/о +28.8 +0.5 16 +26 +26 жарко 1003.9 947.8
13 23.01 ЮЗ 6 н/о н/о +27.8 -0.3 16 +25 +25 комфорт 1004.8 948.6 +37.7
15 23.01 Ю 5 н/о н/о +25.7 +1.1 20 +24 +24 комфорт 1005.2 949.0
16 23.01 Ю 7 н/о н/о +24.2 +1.8 23 +23 +23 комфорт 1004.9 948.7
18 23.01 Ю 6 н/о н/о +21.7 +3.4 30 +22 +22 комфорт 1004.9 948.7
19 23.01 Ю 7 н/о н/о +20.5 +3.3 32 +21 +21 комфорт 1004.8 948.6
21 23.01 Ю 8 н/о н/о +18.1 +4.3 40 +17 +17 1005.8 949.6
22 23.01 Ю 7 н/о н/о +17.7 +5.9 46 +17 +17 1007.2 950.9
00 24.01 Ю 7 н/о н/о +20.4 +6.7 41 +21 +21 комфорт 1008.8 952.4
01 24.01 Ю 6 н/о н/о +22.4 +6.2 35 +23 +23 комфорт 1008.4 952.0 +17.5
03 24.01 Ю 7 н/о н/о +26.9 +5.2 25 +26 +26 жарко 1007.3 951.0
04 24.01 Ю 5 н/о н/о +29.4 +4.1 20 +28 +28 жарко 1006.8 950.5
06 24.01 Ю 5 н/о н/о +32.9 -0.2 12 +30 +30 жарко 1005.1 948.9
07 24.01 ЮЗ 3 н/о н/о +32.5 -1.7 11 +29 +29 жарко 1004.3 948.2
09 24.01 Ю 3 н/о н/о +34.3 -3.1 9 +30 +30 жарко 1003.0 946.9

 

Местоположение метеостанции Микатарра (Западная Австралия, Австралия): широта -26.61 долгота 118.55 высота над уровнем моря 519 м.

В архиве по умолчанию представлена погода в Микатарре за последнюю неделю. Архивные данные за месяц целиком и за предыдущие месяцы, начиная с января 2011 года, Вы можете получить, выбрав интересующий диапазон дат из раскрывающегося списка и нажав кнопку "Ввод!".


*Определитесь, кто Вы:
робот инопланетянин человек

Внимание! Время в таблицах - всемирное. Для получения местного времени необходимо прибавить поправку, которая равна 8 ч.

Смотрите также архив погоды в соседних городах и на ближайших метеорологических станциях:

Погода в Маунт Магнет (Западная Австралия, Австралия) (181 км)
Погода в Леинстере (Западная Австралия, Австралия) (253 км)
Погода в Леоноре (Западная Австралия, Австралия) (372 км)
Погода в Ньюмане (Западная Австралия, Австралия) (378 км)
Погода в Мораве (Западная Австралия, Австралия) (381 км)
Погода в Параберду (Западная Австралия, Австралия) (391 км)
Погода в Лавертоне (Западная Австралия, Австралия) (441 км)
Погода в Дауоллину (Западная Австралия, Австралия) (448 км)
Погода в Джеральдтоне (Западная Австралия, Австралия) (451 км)
Погода в Шарк-Бэе (Западная Австралия, Австралия) (502 км)

Пояснения к столбцам:

Ветер - указаны скорость ветра в м/с - средняя за 10 мин, порывы в срок и между сроками (в фигурных скобках) и направление, откуда дует ветер: С - северный, СВ - северо-восточный, В - восточный, ЮВ - юго-восточный, Ю - южный, ЮЗ - юго-западный, З - западный, СЗ - северо-западный.
Видимость - горизонтальная дальность видимости в метрах или километрах. При видимости от 1 до 10 км при отсутствии осадков обычно наблюдается дымка, при ухудшении видимости до 1 км и менее - туман. В сухую погоду видимость может ухудшаться дымом, пылью или мглою.
Явления - указаны атмосферные явления, наблюдавшиеся в срок или в последний час перед сроком; фигурными скобками обозначены явления, наблюдавшиеся между сроками (за 1-3 часа до срока); квадратными скобками обозначены град или гололедные отложения с указанием их диаметра в мм.
Облачность - указаны через наклонную черту общая и нижняя облачность в баллах и высота нижней границы облаков в метрах; квадратными скобками обозначены формы облаков: Ci - перистые, Cs - перисто-слоистые, Cc - перисто-кучевые, Ac - высококучевые, As - высокослоистые, Sc - слоисто-кучевые, Ns - слоисто-дождевые, Cu - кучевые, Cb - кучево-дождевые. Подробнее классификацию облаков см. в Атласе облаков (PDF).
T - Температура воздуха - температура, измеренная на высоте 2 м над землей.
Td - Температура точки росы - температура, при понижении до которой содержащийся в воздухе водяной пар достигнет насыщения.
f - Относительная влажность воздуха - влажноcть воздуха, измеренная на высоте 2 м над землей.
Te - Эффективная температура - температура, которую ощущает одетый по сезону человек в тени. Характеристика душности погоды. При расчете учитывается влияние влажности воздуха и скорости ветра на теплоощущения человека.
Tes - Эффективная температура на солнце - температура, которую ощущает человек, с поправкой на солнечный нагрев. Характеристика знойности погоды. Зависит от высоты солнца над горизонтом, облачности и скорости ветра. Ночью, в пасмурную погоду, а также при ветре 12 м/с и более поправка равна нулю.
P - Атмосферное давление - приведенное к уровню моря атмосферное давление.
Po - Атмосферное давление - измеренное на уровне метеостанции атмосферное давление.
Tmin - Минимальная температура - минимум температуры воздуха на высоте 2 м над землей.
Tmax - Максимальная температура - максимум температуры воздуха на высоте 2 м над землей.
R - Количество осадков - Количество выпавших осадков за период времени, мм. При наведении курсора мыши на число - период времени, за который выпало указанное количество осадков.
R24 - Количество осадков - Количество выпавших осадков за 24 часа, мм.
S - Снежный покров - Высота снежного покрова, см. При наведении курсора мыши на число - состояние снежного покрова и степень покрытия местности в баллах.